Flag for Poland Weather past 2 weeks in Grudziądz, Poland

Now
44 °F

Clear.


Feels Like: 44 °F
Forecast: 45 / 70 °F
Wind: No wind

Location: Torun

Current Time: May 25, 2015 at 1:31:26 AM

Latest Report: May 25, 2015 at 12:00 AM


Visibility: 25 mi

Pressure: 30.05 "Hg

Humidity: 75%

Dew point: 37 °F

Location of GrudziądzLocation

Historic Weather in Grudziądz — Graph

°F

Grudziądz temperature yesterday

Maximum temperature yesterday: 68 °F (at 5:00 PM)
Minimum temperature yesterday: 49 °F (at 5:00 AM)
Average temperature yesterday: 59 °F

Past Weeks' High & Low Weather Summary

 TemperatureHumidityPressure
High76 °F (May 19, 12:00 PM)96% (May 14, 6:00 AM)30.39 "Hg (May 14, 6:00 AM)
Low30 °F (May 16, 4:00 AM)27% (May 24, 2:00 PM)29.65 "Hg (May 19, 10:00 AM)
Average55 °F65%30.03 "Hg
* Reported Midnight between May 9 and May 10 — Midnight between May 24 and May 25, Grudziądz, Weather by CustomWeather, © 2015

Note: Actual official high and low records may vary slightly from our data, if they occured in-between our weather recording intervals... More about our weather records

Advertising

Grudziądz weather history for previous 24 hours

 ConditionsComfort  
Time TempWeatherWind HumidityBarometerVisibility
12:00 AM
Mon, May 25
44 °FClear.No wind75%30.05 "Hg25 mi
10:00 PM
Sun, May 24
51 °FClear.No wind67%30.05 "Hg31 mi
9:00 PM57 °FClear.No wind53%30.04 "Hg31 mi
8:00 PM65 °FSunny.1 mph34%30.03 "Hg31 mi
7:00 PM67 °FPassing clouds.2 mph29%30.03 "Hg25 mi
6:00 PM67 °FPassing clouds.1 mph29%30.04 "Hg25 mi
5:00 PM68 °FPassing clouds.2 mph28%30.06 "Hg25 mi
4:00 PM67 °FPassing clouds.3 mph27%30.06 "Hg19 mi
3:00 PM68 °FPassing clouds.1 mph28%30.08 "Hg19 mi
2:00 PM66 °FPassing clouds.2 mph27%30.09 "Hg19 mi
1:00 PM65 °FPassing clouds.2 mph36%30.10 "Hg22 mi
12:00 PM62 °FPassing clouds.1 mph40%30.11 "Hg19 mi
11:00 AM61 °FPassing clouds.2 mph54%30.12 "Hg19 mi
10:00 AM58 °FPassing clouds.1 mph57%30.11 "Hg22 mi
9:00 AM57 °FScattered clouds.2 mph73%30.12 "Hg17 mi
8:00 AM54 °FScattered clouds.2 mph79%30.11 "Hg19 mi
7:00 AM52 °FScattered clouds.2 mph84%30.10 "Hg16 mi
6:00 AM50 °FPassing clouds.1 mph91%30.09 "Hg9 mi
5:00 AM49 °FScattered clouds.1 mph90%30.09 "Hg13 mi
4:00 AM51 °FOvercast.2 mph87%30.08 "Hg31 mi
3:00 AM51 °FOvercast.1 mph87%30.08 "Hg31 mi
2:00 AM51 °FPassing clouds.1 mph87%30.08 "Hg31 mi
1:00 AM52 °FOvercast.1 mph87%30.08 "Hg31 mi
Weather by CustomWeather, © 2015

See weather overviewHow to use our weather pages